Location: Allison Elementary School
(34.0784°N, 117.7317°W)
Time: 03:07:53
(UTC+00:00)

Cosmos 2219 - Pass Details

Date: 15 November 2019
Orbit: 835 x 858 km, 71.1° (Epoch: 10 December)

Event Time Altitude Azimuth Distance (km) Brightness Sun altitude
Rises 01:21:02 0° 344° (NNW) 3,388 6.3 -7.3°
Reaches altitude 10° 01:23:32 10° 348° (NNW) 2,450 5.6 -7.8°
Maximum altitude 01:29:03 56° 67° (ENE) 991 3.3 -8.9°
Drops below altitude 10° 01:34:32 10° 145° (SE) 2,442 5.4 -10.0°
Sets 01:37:01 0° 149° (SSE) 3,376 6.2 -10.5°
